TimePST,TemperatureF,Dew PointF,Humidity,Sea Level PressureIn,VisibilityMPH,Wind Direction,Wind SpeedMPH,Gust SpeedMPH,PrecipitationIn,Events,Conditions,WindDirDegrees,DateUTC
12:52 AM,30.9,28.9,92,30.03,-9999.0,Calm,Calm,-,N/A,,Unknown,0,2013-02-10 08:52:00
1:52 AM,32.0,28.9,88,30.02,-9999.0,Calm,Calm,-,N/A,,Unknown,0,2013-02-10 09:52:00
2:52 AM,28.0,26.1,92,30.01,-9999.0,Calm,Calm,-,N/A,,Unknown,0,2013-02-10 10:52:00
3:52 AM,27.0,25.0,92,29.99,-9999.0,NNE,3.5,-,N/A,,Unknown,30,2013-02-10 11:52:00
4:52 AM,27.0,24.1,89,29.99,-9999.0,ENE,3.5,-,N/A,,Unknown,60,2013-02-10 12:52:00
5:52 AM,25.0,21.9,88,30.00,-9999.0,NE,3.5,-,N/A,,Unknown,40,2013-02-10 13:52:00
6:52 AM,25.0,21.9,88,30.01,-9999.0,NE,3.5,-,N/A,,Unknown,50,2013-02-10 14:52:00
7:52 AM,30.9,28.0,89,30.01,-9999.0,Calm,Calm,-,N/A,,Unknown,0,2013-02-10 15:52:00
8:52 AM,39.0,34.0,82,30.01,-9999.0,South,3.5,-,N/A,,Unknown,180,2013-02-10 16:52:00
9:52 AM,42.1,30.9,65,30.01,-9999.0,SW,13.8,-,N/A,,Unknown,220,2013-02-10 17:52:00
10:52 AM,43.0,30.9,62,30.01,-9999.0,WSW,8.1,18.4,N/A,,Unknown,240,2013-02-10 18:52:00
11:52 AM,44.1,32.0,63,29.99,-9999.0,WSW,13.8,-,N/A,,Unknown,250,2013-02-10 19:52:00
12:52 PM,44.1,30.9,60,29.96,-9999.0,WSW,16.1,-,N/A,,Unknown,240,2013-02-10 20:52:00
1:52 PM,44.1,30.9,60,29.96,-9999.0,WSW,9.2,-,N/A,,Unknown,240,2013-02-10 21:52:00
2:52 PM,44.1,30.9,60,29.95,-9999.0,SW,11.5,-,N/A,,Unknown,220,2013-02-10 22:52:00
3:52 PM,43.0,33.1,68,29.96,-9999.0,SW,11.5,-,N/A,,Unknown,230,2013-02-10 23:52:00
4:52 PM,43.0,32.0,65,29.96,-9999.0,WSW,8.1,-,N/A,,Unknown,240,2013-02-11 00:52:00
5:52 PM,41.0,32.0,70,29.97,-9999.0,West,5.8,-,N/A,,Unknown,260,2013-02-11 01:52:00
6:52 PM,37.9,32.0,79,29.98,-9999.0,SW,6.9,-,N/A,,Unknown,230,2013-02-11 02:52:00
7:52 PM,36.0,30.9,82,29.98,-9999.0,ENE,3.5,-,N/A,,Unknown,70,2013-02-11 03:52:00
8:52 PM,39.0,35.1,86,29.97,-9999.0,WNW,3.5,-,N/A,,Unknown,290,2013-02-11 04:52:00
9:52 PM,39.0,34.0,82,29.97,-9999.0,Calm,Calm,-,N/A,,Unknown,0,2013-02-11 05:52:00
10:52 PM,39.0,35.1,86,29.97,-9999.0,Calm,Calm,-,N/A,,Unknown,0,2013-02-11 06:52:00
11:52 PM,39.0,34.0,82,29.97,-9999.0,Calm,Calm,-,N/A,,Unknown,0,2013-02-11 07:52:00